Regional Weather Roundup
Issued by NWS

Home | Current Version | Previous Version | Graphics & Text | Print | Product List | Glossary On
Versions: 1 2 3 4 5 6 7 8 9 10 11 12 13 14 15 16 17 18 19 20 21 22 23 24 25 26 27 28 29 30 31 32 33 34 35 36 37 38 39 40 41 42 43 44 45 46 47 48 49 50
000
ASUS43 KBIS 091010
RWRND

NORTH DAKOTA REGIONAL WEATHER ROUNDUP
NATIONAL WEATHER SERVICE BISMARCK ND
400 AM CST FRI DEC 09 2016

NOTE: "FAIR" INDICATES FEW OR NO CLOUDS BELOW 12,000 FEET WITH NO
SIGNIFICANT WEATHER AND/OR OBSTRUCTIONS TO VISIBILITY.


NDZ001>003-009>011-017-091100-
NORTHWEST NORTH DAKOTA

CITY           SKY/WX    TMP DP  RH WIND       PRES   REMARKS
WILLISTON      CLOUDY   -16 -21  78 CALM      30.56S
MINOT          CLOUDY   -10 -15  78 W6        30.54S WCI -23
MINOT AFB      CLOUDY   -13 -18  79 NW10      30.54F WCI -33
$$

NDZ018>021-031>035-040>046-091100-
SOUTHWEST NORTH DAKOTA

CITY           SKY/WX    TMP DP  RH WIND       PRES   REMARKS
BISMARCK       CLOUDY   -11 -15  82 W3        30.56F
DICKINSON      CLOUDY   -18 -21  87 NW3       30.43F
GARRISON         N/A    -15 -19  82 N7        30.53S WCI -31
HETTINGER ARPT CLOUDY   -18 -22  82 CALM      30.43F
$$

NDZ004>008-012>016-024-026-027-054-091100-
NORTHEAST NORTH DAKOTA

CITY           SKY/WX    TMP DP  RH WIND       PRES   REMARKS
GRAND FORKS    CLOUDY     7   0  73 NW10      30.57F WCI  -8
GRND FRKS AFB  CLOUDY     6  -2  69 NW8       30.57S WCI  -7
DEVILS LAKE    FLURRIES  -6  -9  86 NW10      30.54F WCI -24
$$

NDZ022-023-025-028>030-036>039-047>053-091100-
SOUTHEAST NORTH DAKOTA

CITY           SKY/WX    TMP DP  RH WIND       PRES   REMARKS
FARGO          CLOUDY     8   1  73 W8        30.58F WCI  -4
JAMESTOWN      PTCLDY    -7 -11  83 W6        30.53F WCI -20
$$




USA.gov is the U.S. government's official web portal to all federal, state and local government web resources and services.